Year,Month,Day,Hour,Minute,Value (Times are PST for temperature in C)
2017,02,17,00,00,8.30
2017,02,17,00,01,8.30
2017,02,17,00,02,8.40
2017,02,17,00,03,8.40
2017,02,17,00,04,8.40
2017,02,17,00,05,8.40
2017,02,17,00,06,8.40
2017,02,17,00,07,8.40
2017,02,17,00,08,8.30
2017,02,17,00,09,8.30
2017,02,17,00,10,8.30
2017,02,17,00,11,8.30
2017,02,17,00,12,8.30
2017,02,17,00,13,8.30
2017,02,17,00,14,8.30
2017,02,17,00,15,8.30
2017,02,17,00,16,8.30
2017,02,17,00,17,8.30
2017,02,17,00,18,8.30
2017,02,17,00,19,8.30
2017,02,17,00,20,8.30
2017,02,17,00,21,8.30
2017,02,17,00,22,8.30
2017,02,17,00,23,8.30
2017,02,17,00,24,8.30
2017,02,17,00,25,8.30
2017,02,17,00,26,8.30
2017,02,17,00,27,8.30
2017,02,17,00,28,8.30
2017,02,17,00,29,8.30
2017,02,17,00,30,8.30
2017,02,17,00,31,8.30
2017,02,17,00,32,8.20
2017,02,17,00,33,8.20
2017,02,17,00,34,8.20
2017,02,17,00,35,8.20
2017,02,17,00,36,8.20
2017,02,17,00,37,8.20
2017,02,17,00,38,8.20
2017,02,17,00,39,8.20
2017,02,17,00,40,8.20
2017,02,17,00,41,8.20
2017,02,17,00,42,8.20
2017,02,17,00,43,8.20
2017,02,17,00,44,8.20
2017,02,17,00,45,8.10
2017,02,17,00,46,8.10
2017,02,17,00,47,8.10
2017,02,17,00,48,8.10
2017,02,17,00,49,8.10
2017,02,17,00,50,8.10
2017,02,17,00,51,8.10
2017,02,17,00,52,8.10
2017,02,17,00,53,8.00
2017,02,17,00,54,8.00
2017,02,17,00,55,8.00
2017,02,17,00,56,7.90
2017,02,17,00,57,7.90
2017,02,17,00,58,7.90
2017,02,17,00,59,7.90
2017,02,17,01,00,7.90
2017,02,17,01,01,7.90
2017,02,17,01,02,7.90
2017,02,17,01,03,7.90
2017,02,17,01,04,7.90
2017,02,17,01,05,7.90
2017,02,17,01,06,7.90
2017,02,17,01,07,7.90
2017,02,17,01,08,7.80
2017,02,17,01,09,7.80
2017,02,17,01,10,7.80
2017,02,17,01,11,7.80
2017,02,17,01,12,7.80
2017,02,17,01,13,7.70
2017,02,17,01,14,7.70
2017,02,17,01,15,7.70
2017,02,17,01,16,7.70
2017,02,17,01,17,7.70
2017,02,17,01,18,7.70
2017,02,17,01,19,7.70
2017,02,17,01,20,7.60
2017,02,17,01,21,7.60
2017,02,17,01,22,7.60
2017,02,17,01,23,7.60
2017,02,17,01,24,7.50
2017,02,17,01,25,7.50
2017,02,17,01,26,7.50
2017,02,17,01,27,7.50
2017,02,17,01,28,7.40
2017,02,17,01,29,7.40
2017,02,17,01,30,7.40
2017,02,17,01,31,7.40
2017,02,17,01,32,7.30
2017,02,17,01,33,7.30
2017,02,17,01,34,7.30
2017,02,17,01,35,7.20
2017,02,17,01,36,7.20
2017,02,17,01,37,7.10
2017,02,17,01,38,7.10
2017,02,17,01,39,7.00
2017,02,17,01,40,7.00
2017,02,17,01,41,6.90
2017,02,17,01,42,6.80
2017,02,17,01,43,6.80
2017,02,17,01,44,6.80
2017,02,17,01,45,6.70
2017,02,17,01,46,6.70
2017,02,17,01,47,6.70
2017,02,17,01,48,6.70
2017,02,17,01,49,6.70
2017,02,17,01,50,6.70
2017,02,17,01,51,6.70
2017,02,17,01,52,6.70
2017,02,17,01,53,6.80
2017,02,17,01,54,6.80
2017,02,17,01,55,6.80
2017,02,17,01,56,6.90
2017,02,17,01,57,6.90
2017,02,17,01,58,6.90
2017,02,17,01,59,7.00
2017,02,17,02,00,7.00
2017,02,17,02,01,7.10
2017,02,17,02,02,7.10
2017,02,17,02,03,7.10
2017,02,17,02,04,7.10
2017,02,17,02,05,7.10
2017,02,17,02,06,7.10
2017,02,17,02,07,7.10
2017,02,17,02,08,7.10
2017,02,17,02,09,7.10
2017,02,17,02,10,7.00
2017,02,17,02,11,7.00
2017,02,17,02,12,6.90
2017,02,17,02,13,6.90
2017,02,17,02,14,6.90
2017,02,17,02,15,6.90
2017,02,17,02,16,6.80
2017,02,17,02,17,6.80
2017,02,17,02,18,6.80
2017,02,17,02,19,6.80
2017,02,17,02,20,6.80
2017,02,17,02,21,6.80
2017,02,17,02,22,6.80
2017,02,17,02,23,6.70
2017,02,17,02,24,6.70
2017,02,17,02,25,6.70
2017,02,17,02,26,6.70
2017,02,17,02,27,6.70
2017,02,17,02,28,6.70
2017,02,17,02,29,6.70
2017,02,17,02,30,6.60
2017,02,17,02,31,6.60
2017,02,17,02,32,6.60
2017,02,17,02,33,6.60
2017,02,17,02,34,6.50
2017,02,17,02,35,6.50
2017,02,17,02,36,6.40
2017,02,17,02,37,6.40
2017,02,17,02,38,6.30
2017,02,17,02,39,6.30
2017,02,17,02,40,6.30
2017,02,17,02,41,6.20
2017,02,17,02,42,6.20
2017,02,17,02,43,6.20
2017,02,17,02,44,6.20
2017,02,17,02,45,6.10
2017,02,17,02,46,6.10
2017,02,17,02,47,6.00
2017,02,17,02,48,6.00
2017,02,17,02,49,6.00
2017,02,17,02,50,5.90
2017,02,17,02,51,5.90
2017,02,17,02,52,5.90
2017,02,17,02,53,5.80
2017,02,17,02,54,5.80
2017,02,17,02,55,5.80
2017,02,17,02,56,5.70
2017,02,17,02,57,5.70
2017,02,17,02,58,5.70
2017,02,17,02,59,5.70
2017,02,17,03,00,5.60
2017,02,17,03,01,5.60
2017,02,17,03,02,5.60
2017,02,17,03,03,5.60
2017,02,17,03,04,5.50
2017,02,17,03,05,5.50
2017,02,17,03,06,5.50
2017,02,17,03,07,5.40
2017,02,17,03,08,5.40
2017,02,17,03,09,5.40
2017,02,17,03,10,5.40
2017,02,17,03,11,5.40
2017,02,17,03,12,5.30
2017,02,17,03,13,5.30
2017,02,17,03,14,5.30
2017,02,17,03,15,5.30
2017,02,17,03,16,5.30
2017,02,17,03,17,5.30
2017,02,17,03,18,5.30
2017,02,17,03,19,5.30
2017,02,17,03,20,5.20
2017,02,17,03,21,5.20
2017,02,17,03,22,5.20
2017,02,17,03,23,5.20
2017,02,17,03,24,5.20
2017,02,17,03,25,5.20
2017,02,17,03,26,5.20
2017,02,17,03,27,5.30
2017,02,17,03,28,5.30
2017,02,17,03,29,5.30
2017,02,17,03,30,5.30
2017,02,17,03,31,5.30
2017,02,17,03,32,5.30
2017,02,17,03,33,5.30
2017,02,17,03,34,5.20
2017,02,17,03,35,5.20
2017,02,17,03,36,5.30
2017,02,17,03,37,5.30
2017,02,17,03,38,5.30
2017,02,17,03,39,5.30
2017,02,17,03,40,5.30
2017,02,17,03,41,5.30
2017,02,17,03,42,5.30
2017,02,17,03,43,5.30
2017,02,17,03,44,5.30
2017,02,17,03,45,5.30
2017,02,17,03,46,5.30
2017,02,17,03,47,5.30
2017,02,17,03,48,5.30
2017,02,17,03,49,5.30
2017,02,17,03,50,5.30
2017,02,17,03,51,5.30
2017,02,17,03,52,5.30
2017,02,17,03,53,5.30
2017,02,17,03,54,5.30
2017,02,17,03,55,5.30
2017,02,17,03,56,5.20
2017,02,17,03,57,5.20
2017,02,17,03,58,5.20
2017,02,17,03,59,5.20
2017,02,17,04,00,5.20
2017,02,17,04,01,5.20
2017,02,17,04,02,5.20
2017,02,17,04,03,5.20
2017,02,17,04,04,5.20
2017,02,17,04,05,5.20
2017,02,17,04,06,5.20
2017,02,17,04,07,5.20
2017,02,17,04,08,5.20
2017,02,17,04,09,5.20
2017,02,17,04,10,5.20
2017,02,17,04,11,5.20
2017,02,17,04,12,5.20
2017,02,17,04,13,5.20
2017,02,17,04,14,5.20
2017,02,17,04,15,5.20
2017,02,17,04,16,5.20
2017,02,17,04,17,5.10
2017,02,17,04,18,5.10
2017,02,17,04,19,5.10
2017,02,17,04,20,5.10
2017,02,17,04,21,5.10
2017,02,17,04,22,5.10
2017,02,17,04,23,5.10
2017,02,17,04,24,5.10
2017,02,17,04,25,5.10
2017,02,17,04,26,5.10
2017,02,17,04,27,5.10
2017,02,17,04,28,5.10
2017,02,17,04,29,5.10
2017,02,17,04,30,5.10
2017,02,17,04,31,5.10
2017,02,17,04,32,5.10
2017,02,17,04,33,5.10
2017,02,17,04,34,5.20
2017,02,17,04,35,5.10
2017,02,17,04,36,5.20
2017,02,17,04,37,5.20
2017,02,17,04,38,5.20
2017,02,17,04,39,5.20
2017,02,17,04,40,5.20
2017,02,17,04,41,5.20
2017,02,17,04,42,5.20
2017,02,17,04,43,5.20
2017,02,17,04,44,5.20
2017,02,17,04,45,5.20
2017,02,17,04,46,5.20
2017,02,17,04,47,5.20
2017,02,17,04,48,5.20
2017,02,17,04,49,5.20
2017,02,17,04,50,5.20
2017,02,17,04,51,5.20
2017,02,17,04,52,5.10
2017,02,17,04,53,5.20
2017,02,17,04,54,5.10
2017,02,17,04,55,5.10
2017,02,17,04,56,5.10
2017,02,17,04,57,5.10
2017,02,17,04,58,5.10
2017,02,17,04,59,5.10
2017,02,17,05,00,5.10
2017,02,17,05,01,5.10
2017,02,17,05,02,5.10
2017,02,17,05,03,5.10
2017,02,17,05,04,5.10
2017,02,17,05,05,5.10
2017,02,17,05,06,5.10
2017,02,17,05,07,5.10
2017,02,17,05,08,5.10
2017,02,17,05,09,5.10
2017,02,17,05,10,5.10
2017,02,17,05,11,5.10
2017,02,17,05,12,5.20
2017,02,17,05,13,5.20
2017,02,17,05,14,5.10
2017,02,17,05,15,5.10
2017,02,17,05,16,5.10
2017,02,17,05,17,5.10
2017,02,17,05,18,5.10
2017,02,17,05,19,5.10
2017,02,17,05,20,5.10
2017,02,17,05,21,5.10
2017,02,17,05,22,5.10
2017,02,17,05,23,5.10
2017,02,17,05,24,5.10
2017,02,17,05,25,5.10
2017,02,17,05,26,5.10
2017,02,17,05,27,5.10
2017,02,17,05,28,5.10
2017,02,17,05,29,5.10
2017,02,17,05,30,5.10
2017,02,17,05,31,5.10
2017,02,17,05,32,5.10
2017,02,17,05,33,5.10
2017,02,17,05,34,5.10
2017,02,17,05,35,5.10
2017,02,17,05,36,5.10
2017,02,17,05,37,5.10
2017,02,17,05,38,5.10
2017,02,17,05,39,5.10
2017,02,17,05,40,5.10
2017,02,17,05,41,5.10
2017,02,17,05,42,5.10
2017,02,17,05,43,5.10
2017,02,17,05,44,5.10
2017,02,17,05,45,5.10
2017,02,17,05,46,5.10
2017,02,17,05,47,5.10
2017,02,17,05,48,5.10
2017,02,17,05,49,5.10
2017,02,17,08,21,6.10
2017,02,17,08,22,6.10
2017,02,17,08,23,6.10
2017,02,17,08,24,6.20
2017,02,17,08,25,6.20
2017,02,17,08,26,6.20
2017,02,17,08,27,6.20
2017,02,17,08,28,6.20
2017,02,17,08,29,6.30
2017,02,17,08,30,6.30
2017,02,17,08,31,6.30
2017,02,17,08,32,6.30
2017,02,17,08,33,6.40
2017,02,17,08,34,6.40
2017,02,17,08,35,6.40
2017,02,17,08,36,6.50
2017,02,17,08,37,6.50
2017,02,17,08,38,6.60
2017,02,17,08,39,6.60
2017,02,17,08,40,6.60
2017,02,17,08,41,6.70
2017,02,17,08,42,6.70
2017,02,17,08,43,6.80
2017,02,17,08,44,6.80
2017,02,17,08,45,6.80
2017,02,17,08,46,6.90
2017,02,17,08,47,6.90
2017,02,17,08,48,7.00
2017,02,17,08,49,7.00
2017,02,17,08,50,7.10
2017,02,17,08,51,7.20
2017,02,17,08,52,7.20
2017,02,17,08,53,7.30
2017,02,17,08,54,7.30
2017,02,17,08,55,7.30
2017,02,17,08,56,7.40
2017,02,17,08,57,7.40
2017,02,17,08,58,7.40
2017,02,17,08,59,7.50
2017,02,17,09,00,7.50
2017,02,17,09,01,7.50
2017,02,17,09,02,7.60
2017,02,17,09,03,7.60
2017,02,17,09,04,7.60
2017,02,17,09,05,7.60
2017,02,17,09,06,7.60
2017,02,17,09,07,7.60
2017,02,17,09,08,7.70
2017,02,17,09,09,7.70
2017,02,17,09,10,7.70
2017,02,17,09,11,7.70
2017,02,17,09,12,7.70
2017,02,17,09,13,7.70
2017,02,17,09,14,7.70
2017,02,17,09,15,7.70
2017,02,17,09,16,7.70
2017,02,17,09,17,7.70
2017,02,17,09,18,7.70
2017,02,17,09,19,7.70
2017,02,17,09,20,7.80
2017,02,17,09,21,7.80
2017,02,17,09,22,7.80
2017,02,17,09,23,7.80
2017,02,17,09,24,7.80
2017,02,17,09,25,7.80
2017,02,17,09,26,7.80
2017,02,17,09,27,7.80
2017,02,17,09,28,7.80
2017,02,17,09,29,7.80
2017,02,17,09,30,7.80
2017,02,17,09,31,7.80
2017,02,17,09,32,7.80
2017,02,17,09,33,7.80
2017,02,17,09,34,7.80
2017,02,17,09,35,7.80
2017,02,17,09,36,7.80
2017,02,17,09,37,7.80
2017,02,17,09,38,7.80
2017,02,17,09,39,7.80
2017,02,17,09,40,7.90
2017,02,17,09,41,7.90
2017,02,17,09,42,7.90
2017,02,17,09,43,7.90
2017,02,17,09,44,7.90
2017,02,17,09,45,7.90
2017,02,17,09,46,7.90
2017,02,17,09,47,7.90
2017,02,17,09,48,7.90
2017,02,17,09,49,7.90
2017,02,17,09,50,7.90
2017,02,17,09,51,7.90
2017,02,17,09,52,8.00
2017,02,17,09,53,7.90
2017,02,17,09,54,8.00
2017,02,17,09,55,7.90
2017,02,17,09,56,7.90
2017,02,17,09,57,7.90
2017,02,17,09,58,7.90
2017,02,17,09,59,7.90
2017,02,17,10,00,7.90
2017,02,17,10,01,7.90
2017,02,17,10,02,8.00
2017,02,17,10,03,8.00
2017,02,17,10,04,8.00
2017,02,17,10,05,8.00
2017,02,17,10,06,8.10
2017,02,17,10,07,8.10
2017,02,17,10,08,8.10
2017,02,17,10,09,8.10
2017,02,17,10,10,8.10
2017,02,17,10,11,8.10
2017,02,17,10,12,8.10
2017,02,17,10,13,8.10
2017,02,17,10,14,8.10
2017,02,17,10,15,8.10
2017,02,17,10,16,8.10
2017,02,17,10,17,8.10
2017,02,17,10,18,8.10
2017,02,17,10,19,8.10
2017,02,17,10,20,8.20
2017,02,17,10,21,8.20
2017,02,17,10,22,8.20
2017,02,17,10,23,8.20
2017,02,17,10,24,8.20
2017,02,17,10,25,8.20
2017,02,17,10,26,8.20
2017,02,17,10,27,8.20
2017,02,17,10,28,8.20
2017,02,17,10,29,8.20
2017,02,17,10,30,8.20
2017,02,17,10,31,8.10
2017,02,17,10,32,8.10
2017,02,17,10,33,8.10
2017,02,17,10,34,8.10
2017,02,17,10,35,8.10
2017,02,17,10,36,8.20
2017,02,17,10,37,8.20
2017,02,17,10,38,8.20
2017,02,17,10,39,8.20
2017,02,17,10,40,8.20
2017,02,17,10,41,8.20
2017,02,17,10,42,8.20
2017,02,17,10,43,8.20
2017,02,17,10,44,8.20
2017,02,17,10,45,8.20
2017,02,17,10,46,8.20
2017,02,17,10,47,8.20
2017,02,17,10,48,8.20
2017,02,17,10,49,8.20
2017,02,17,10,50,8.20
2017,02,17,10,51,8.20
2017,02,17,10,52,8.20
2017,02,17,10,53,8.20
2017,02,17,10,54,8.20
2017,02,17,10,55,8.20
2017,02,17,10,56,8.20
2017,02,17,10,57,8.20
2017,02,17,10,58,8.20
2017,02,17,10,59,8.20
2017,02,17,11,00,8.20
2017,02,17,11,01,8.20
2017,02,17,11,02,8.20
2017,02,17,11,03,8.20
2017,02,17,11,04,8.20
2017,02,17,11,05,8.20
2017,02,17,11,06,8.20
2017,02,17,11,07,8.20
2017,02,17,11,08,8.20
2017,02,17,11,09,8.20
2017,02,17,11,10,8.20
2017,02,17,11,11,8.20
2017,02,17,11,12,8.20
2017,02,17,11,13,8.20
2017,02,17,11,14,8.20
2017,02,17,11,15,8.10
2017,02,17,11,16,8.10
2017,02,17,11,17,8.10
2017,02,17,11,18,8.10
2017,02,17,11,19,8.10
2017,02,17,11,20,8.00
2017,02,17,11,21,8.00
2017,02,17,11,22,8.00
2017,02,17,11,23,8.00
2017,02,17,11,24,8.00
2017,02,17,11,25,8.00
2017,02,17,11,26,8.00
2017,02,17,11,27,8.00
2017,02,17,11,28,8.10
2017,02,17,11,29,8.10
2017,02,17,11,30,8.10
2017,02,17,11,31,8.10
2017,02,17,11,32,8.10
2017,02,17,11,33,8.10
2017,02,17,11,34,8.10
2017,02,17,11,35,8.20
2017,02,17,11,36,8.20
2017,02,17,11,37,8.20
2017,02,17,11,38,8.20
2017,02,17,11,39,8.20
2017,02,17,11,40,8.20
2017,02,17,11,41,8.30
2017,02,17,11,42,8.30
2017,02,17,11,43,8.30
2017,02,17,11,44,8.30
2017,02,17,11,45,8.30
2017,02,17,11,46,8.30
2017,02,17,11,47,8.40
2017,02,17,11,48,8.40
2017,02,17,11,49,8.40
2017,02,17,11,50,8.40
2017,02,17,11,51,8.40
2017,02,17,11,52,8.40
2017,02,17,11,53,8.40
2017,02,17,11,54,8.40
2017,02,17,11,55,8.40
2017,02,17,11,56,8.40
2017,02,17,11,57,8.40
2017,02,17,11,58,8.40
2017,02,17,11,59,8.40
2017,02,17,12,00,8.40
2017,02,17,12,01,8.50
2017,02,17,12,02,8.50
2017,02,17,12,03,8.50
2017,02,17,12,04,8.50
2017,02,17,12,05,8.50
2017,02,17,12,06,8.50
2017,02,17,12,07,8.60
2017,02,17,12,08,8.60
2017,02,17,12,09,8.60
2017,02,17,12,10,8.60
2017,02,17,12,11,8.60
2017,02,17,12,12,8.50
2017,02,17,12,13,8.50
2017,02,17,12,14,8.50
2017,02,17,12,15,8.50
2017,02,17,12,16,8.40
2017,02,17,12,17,8.40
2017,02,17,12,18,8.40
2017,02,17,12,19,8.40
2017,02,17,12,20,8.40
2017,02,17,12,21,8.40
2017,02,17,12,22,8.40
2017,02,17,12,23,8.30
2017,02,17,12,24,8.30
2017,02,17,12,25,8.30
2017,02,17,12,26,8.30
2017,02,17,12,27,8.30
2017,02,17,12,28,8.30
2017,02,17,12,29,8.20
2017,02,17,12,30,8.20
2017,02,17,12,31,8.20
2017,02,17,12,32,8.20
2017,02,17,12,33,8.30
2017,02,17,12,34,8.30
2017,02,17,12,35,8.30
2017,02,17,12,36,8.30
2017,02,17,12,37,8.30
2017,02,17,12,38,8.30
2017,02,17,12,39,8.30
2017,02,17,12,40,8.30
2017,02,17,12,41,8.30
2017,02,17,12,42,8.30
2017,02,17,12,43,8.40
2017,02,17,12,44,8.40
2017,02,17,12,45,8.40
2017,02,17,12,46,8.40
2017,02,17,12,47,8.40
2017,02,17,12,48,8.40
2017,02,17,12,49,8.40
2017,02,17,12,50,8.40
2017,02,17,12,51,8.40
2017,02,17,12,52,8.50
2017,02,17,12,53,8.50
2017,02,17,12,54,8.50
2017,02,17,12,55,8.60
2017,02,17,12,56,8.60
2017,02,17,12,57,8.60
2017,02,17,12,58,8.60
2017,02,17,12,59,8.60
2017,02,17,13,00,8.60
2017,02,17,13,01,8.60
2017,02,17,13,02,8.70
2017,02,17,13,03,8.70
2017,02,17,13,04,8.70
2017,02,17,13,05,8.70
2017,02,17,13,06,8.70
2017,02,17,13,07,8.70
2017,02,17,13,08,8.70
2017,02,17,13,09,8.70
2017,02,17,13,10,8.70
2017,02,17,13,11,8.70
2017,02,17,13,12,8.70
2017,02,17,13,13,8.70
2017,02,17,13,14,8.70
2017,02,17,13,15,8.60
2017,02,17,13,16,8.60
2017,02,17,13,17,8.60
2017,02,17,13,18,8.60
2017,02,17,13,19,8.60
2017,02,17,13,20,8.50
2017,02,17,13,21,8.50
2017,02,17,13,22,8.50
2017,02,17,13,23,8.40
2017,02,17,13,24,8.40
2017,02,17,13,25,8.40
2017,02,17,13,26,8.40
2017,02,17,13,27,8.40
2017,02,17,13,28,8.40
2017,02,17,13,29,8.40
2017,02,17,13,30,8.40
2017,02,17,13,31,8.30
2017,02,17,13,32,8.30
2017,02,17,13,33,8.30
2017,02,17,13,34,8.30
2017,02,17,13,35,8.30
2017,02,17,13,36,8.30
2017,02,17,13,37,8.30
2017,02,17,13,38,8.30
2017,02,17,13,39,8.30
2017,02,17,13,40,8.30
2017,02,17,13,41,8.30
2017,02,17,13,42,8.30
2017,02,17,13,43,8.30
2017,02,17,13,44,8.30
2017,02,17,13,45,8.30
2017,02,17,13,46,8.30
2017,02,17,13,47,8.30
2017,02,17,13,48,8.30
2017,02,17,13,49,8.30
2017,02,17,13,50,8.30
2017,02,17,13,51,8.30
2017,02,17,13,52,8.30
2017,02,17,13,53,8.30
2017,02,17,13,54,8.30
2017,02,17,13,55,8.30
2017,02,17,13,56,8.40
2017,02,17,13,57,8.40
2017,02,17,13,58,8.40
2017,02,17,13,59,8.40
2017,02,17,14,00,8.40
2017,02,17,14,01,8.40
2017,02,17,14,02,8.50
2017,02,17,14,03,8.50
2017,02,17,14,04,8.50
2017,02,17,14,05,8.50
2017,02,17,14,06,8.50
2017,02,17,14,07,8.50
2017,02,17,14,08,8.60
2017,02,17,14,09,8.60
2017,02,17,14,10,8.60
2017,02,17,14,11,8.60
2017,02,17,14,12,8.70
2017,02,17,14,13,8.70
2017,02,17,14,14,8.70
2017,02,17,14,15,8.80
2017,02,17,14,16,8.80
2017,02,17,14,17,8.80
2017,02,17,14,18,8.80
2017,02,17,14,19,8.80
2017,02,17,14,20,8.80
2017,02,17,14,21,8.80
2017,02,17,14,22,8.80
2017,02,17,14,23,8.80
2017,02,17,14,24,8.80
2017,02,17,14,25,8.80
2017,02,17,14,26,8.80
2017,02,17,14,27,8.80
2017,02,17,14,28,8.80
2017,02,17,14,29,8.80
2017,02,17,14,30,8.80
2017,02,17,14,31,8.90
2017,02,17,14,32,8.90
2017,02,17,14,33,8.90
2017,02,17,14,34,8.90
2017,02,17,14,35,8.90
2017,02,17,14,36,8.90
2017,02,17,14,37,8.90
2017,02,17,14,38,8.90
2017,02,17,14,39,8.90
2017,02,17,14,40,8.90
2017,02,17,14,41,8.90
2017,02,17,14,42,8.90
2017,02,17,14,43,8.90
2017,02,17,14,44,8.90
2017,02,17,14,45,8.90
2017,02,17,14,46,8.90
2017,02,17,14,47,8.90
2017,02,17,14,48,8.90
2017,02,17,14,49,8.90
2017,02,17,14,50,8.90
2017,02,17,14,51,8.90
2017,02,17,14,52,8.80
2017,02,17,14,53,8.80
2017,02,17,14,54,8.80
2017,02,17,14,55,8.80
2017,02,17,14,56,8.80
2017,02,17,14,57,8.80
2017,02,17,14,58,8.80
2017,02,17,14,59,8.80
2017,02,17,15,00,8.80
2017,02,17,15,01,8.80
2017,02,17,15,02,8.80
2017,02,17,15,03,8.80
2017,02,17,15,04,8.80
2017,02,17,15,05,8.80
2017,02,17,15,06,8.80
2017,02,17,15,07,8.80
2017,02,17,15,08,8.70
2017,02,17,15,09,8.70
2017,02,17,15,10,8.70
2017,02,17,15,11,8.70
2017,02,17,15,12,8.70
2017,02,17,15,13,8.70
2017,02,17,15,14,8.70
2017,02,17,15,15,8.70
2017,02,17,15,16,8.70
2017,02,17,15,17,8.70
2017,02,17,15,18,8.70
2017,02,17,15,19,8.70
2017,02,17,15,20,8.70
2017,02,17,15,21,8.70
2017,02,17,15,22,8.70
2017,02,17,15,23,8.70
2017,02,17,15,24,8.80
2017,02,17,15,25,8.80
2017,02,17,15,26,8.80
2017,02,17,15,27,8.80
2017,02,17,15,28,8.90
2017,02,17,15,29,8.90
2017,02,17,15,30,8.90
2017,02,17,15,31,8.90
2017,02,17,15,32,9.00
2017,02,17,15,33,9.00
2017,02,17,15,34,9.00
2017,02,17,15,35,9.10
2017,02,17,15,36,9.10
2017,02,17,15,37,9.10
2017,02,17,15,38,9.10
2017,02,17,15,39,9.10
2017,02,17,15,40,9.10
2017,02,17,15,41,9.10
2017,02,17,15,42,9.10
2017,02,17,15,43,9.10
2017,02,17,15,44,9.10
2017,02,17,15,45,9.10
2017,02,17,15,46,9.10
2017,02,17,15,47,9.10
2017,02,17,15,48,9.00
2017,02,17,15,49,9.00
2017,02,17,15,50,9.00
2017,02,17,15,51,8.90
2017,02,17,15,52,8.90
2017,02,17,15,53,8.90
2017,02,17,15,54,8.90
2017,02,17,15,55,8.90
2017,02,17,15,56,8.90
2017,02,17,15,57,8.90
2017,02,17,15,58,8.80
2017,02,17,15,59,8.80
2017,02,17,16,00,8.80
2017,02,17,16,01,8.80
2017,02,17,16,02,8.80
2017,02,17,16,03,8.70
2017,02,17,16,04,8.70
2017,02,17,16,05,8.70
2017,02,17,16,06,8.70
2017,02,17,16,07,8.70
2017,02,17,16,08,8.70
2017,02,17,16,09,8.70
2017,02,17,16,10,8.70
2017,02,17,16,11,8.70
2017,02,17,16,12,8.70
2017,02,17,16,13,8.70
2017,02,17,16,14,8.70
2017,02,17,16,15,8.70
2017,02,17,16,16,8.70
2017,02,17,16,17,8.70
2017,02,17,16,18,8.70
2017,02,17,16,19,8.70
2017,02,17,16,20,8.70
2017,02,17,16,21,8.70
2017,02,17,16,22,8.70
2017,02,17,16,23,8.70
2017,02,17,16,24,8.70
2017,02,17,16,25,8.70
2017,02,17,16,26,8.70
2017,02,17,16,27,8.70
2017,02,17,16,28,8.70
2017,02,17,16,29,8.80
2017,02,17,16,30,8.80
2017,02,17,16,31,8.80
2017,02,17,16,32,8.80
2017,02,17,16,33,8.80
2017,02,17,16,34,8.80
2017,02,17,16,35,8.80
2017,02,17,16,36,8.80
2017,02,17,16,37,8.80
2017,02,17,16,38,8.80
2017,02,17,16,39,8.80
2017,02,17,16,40,8.80
2017,02,17,16,41,8.70
2017,02,17,16,42,8.70
2017,02,17,16,43,8.70
2017,02,17,16,44,8.70
2017,02,17,16,45,8.70
2017,02,17,16,46,8.70
2017,02,17,16,47,8.70
2017,02,17,16,48,8.70
2017,02,17,16,49,8.60
2017,02,17,16,50,8.60
2017,02,17,16,51,8.60
2017,02,17,16,52,8.60
2017,02,17,16,53,8.60
2017,02,17,16,54,8.60
2017,02,17,16,55,8.60
2017,02,17,16,56,8.50
2017,02,17,16,57,8.50
2017,02,17,16,58,8.50
2017,02,17,16,59,8.50
2017,02,17,17,00,8.50
2017,02,17,17,01,8.40
2017,02,17,17,02,8.40
2017,02,17,17,03,8.40
2017,02,17,17,04,8.40
2017,02,17,17,05,8.40
2017,02,17,17,06,8.40
2017,02,17,17,07,8.30
2017,02,17,17,08,8.30
2017,02,17,17,09,8.30
2017,02,17,17,10,8.30
2017,02,17,17,11,8.30
2017,02,17,17,12,8.20
2017,02,17,17,13,8.20
2017,02,17,17,14,8.20
2017,02,17,17,15,8.20
2017,02,17,17,16,8.10
2017,02,17,17,17,8.10
2017,02,17,17,18,8.10
2017,02,17,17,19,8.10
2017,02,17,17,20,8.10
2017,02,17,17,21,8.00
2017,02,17,17,22,8.00
2017,02,17,17,23,8.00
2017,02,17,17,24,7.90
2017,02,17,17,25,7.90
2017,02,17,17,26,7.90
2017,02,17,17,27,7.90
2017,02,17,17,28,7.80
2017,02,17,17,29,7.80
2017,02,17,17,30,7.80
2017,02,17,17,31,7.70
2017,02,17,17,32,7.70
2017,02,17,17,33,7.60
2017,02,17,17,34,7.60
2017,02,17,17,35,7.60
2017,02,17,17,36,7.50
2017,02,17,17,37,7.50
2017,02,17,17,38,7.40
2017,02,17,17,39,7.40
2017,02,17,17,40,7.30
2017,02,17,17,41,7.30
2017,02,17,17,42,7.20
2017,02,17,17,43,7.20
2017,02,17,17,44,7.20
2017,02,17,17,45,7.10
2017,02,17,17,46,7.10
2017,02,17,17,47,7.10
2017,02,17,17,48,7.00
2017,02,17,17,49,6.90
2017,02,17,17,50,6.90
2017,02,17,17,51,6.80
2017,02,17,17,52,6.80
2017,02,17,17,53,6.80
2017,02,17,17,54,6.70
2017,02,17,17,55,6.70
2017,02,17,17,56,6.60
2017,02,17,17,57,6.60
2017,02,17,17,58,6.60
2017,02,17,17,59,6.50
2017,02,17,18,00,6.50
2017,02,17,18,01,6.40
2017,02,17,18,02,6.40
2017,02,17,18,03,6.40
2017,02,17,18,04,6.30
2017,02,17,18,05,6.30
2017,02,17,18,06,6.30
2017,02,17,18,07,6.20
2017,02,17,18,08,6.20
2017,02,17,18,09,6.20
2017,02,17,18,10,6.10
2017,02,17,18,11,6.10
2017,02,17,18,12,6.10
2017,02,17,18,13,6.00
2017,02,17,18,14,5.90
2017,02,17,18,15,5.90
2017,02,17,18,16,5.90
2017,02,17,18,17,5.80
2017,02,17,18,18,5.80
2017,02,17,18,19,5.70
2017,02,17,18,20,5.70
2017,02,17,18,21,5.70
2017,02,17,18,22,5.60
2017,02,17,18,23,5.60
2017,02,17,18,24,5.60
2017,02,17,18,25,5.50
2017,02,17,18,26,5.50
2017,02,17,18,27,5.50
2017,02,17,18,28,5.40
2017,02,17,18,29,5.40
2017,02,17,18,30,5.40
2017,02,17,18,31,5.40
2017,02,17,18,32,5.40
2017,02,17,18,33,5.40
2017,02,17,18,34,5.50
2017,02,17,18,35,5.50
2017,02,17,18,36,5.50
2017,02,17,18,37,5.50
2017,02,17,18,38,5.50
2017,02,17,18,39,5.50
2017,02,17,18,40,5.50
2017,02,17,18,41,5.50
2017,02,17,18,42,5.50
2017,02,17,18,43,5.50
2017,02,17,18,44,5.50
2017,02,17,18,45,5.40
2017,02,17,18,46,5.40
2017,02,17,18,47,5.40
2017,02,17,18,48,5.40
2017,02,17,18,49,5.40
2017,02,17,18,50,5.40
2017,02,17,18,51,5.40
2017,02,17,18,52,5.40
2017,02,17,18,53,5.40
2017,02,17,18,54,5.40
2017,02,17,18,55,5.50
2017,02,17,18,56,5.50
2017,02,17,18,57,5.60
2017,02,17,18,58,5.60
2017,02,17,18,59,5.60
2017,02,17,19,00,5.60
2017,02,17,19,01,5.70
2017,02,17,19,02,5.70
2017,02,17,19,03,5.70
2017,02,17,19,04,5.70
2017,02,17,19,05,5.70
2017,02,17,19,06,5.70
2017,02,17,19,07,5.70
2017,02,17,19,08,5.60
2017,02,17,19,09,5.60
2017,02,17,19,10,5.60
2017,02,17,19,11,5.60
2017,02,17,19,12,5.50
2017,02,17,19,13,5.50
2017,02,17,19,14,5.40
2017,02,17,19,15,5.40
2017,02,17,19,16,5.40
2017,02,17,19,17,5.40
2017,02,17,19,18,5.30
2017,02,17,19,19,5.30
2017,02,17,19,20,5.30
2017,02,17,19,21,5.20
2017,02,17,19,22,5.20
2017,02,17,19,23,5.20
2017,02,17,19,24,5.20
2017,02,17,19,25,5.10
2017,02,17,19,26,5.10
2017,02,17,19,27,5.10
2017,02,17,19,28,5.10
2017,02,17,19,29,5.10
2017,02,17,19,30,5.10
2017,02,17,19,31,5.10
2017,02,17,19,32,5.00
2017,02,17,19,33,5.00
2017,02,17,19,34,5.00
2017,02,17,19,35,5.00
2017,02,17,19,36,5.00
2017,02,17,19,37,5.00
2017,02,17,19,38,5.00
2017,02,17,19,39,5.00
2017,02,17,19,40,5.00
2017,02,17,19,41,5.00
2017,02,17,19,42,5.10
2017,02,17,19,43,5.20
2017,02,17,19,44,5.30
2017,02,17,19,45,5.50
2017,02,17,19,46,5.60
2017,02,17,19,47,5.70
2017,02,17,19,48,5.80
2017,02,17,19,49,5.90
2017,02,17,19,50,5.90
2017,02,17,19,51,6.00
2017,02,17,19,52,6.00
2017,02,17,19,53,6.10
2017,02,17,19,54,6.10
2017,02,17,19,55,6.20
2017,02,17,19,56,6.20
2017,02,17,19,57,6.20
2017,02,17,19,58,6.30
2017,02,17,19,59,6.30
2017,02,17,20,00,6.30
2017,02,17,20,01,6.30
2017,02,17,20,02,6.30
2017,02,17,20,03,6.30
2017,02,17,20,04,6.20
2017,02,17,20,05,6.20
2017,02,17,20,06,6.20
2017,02,17,20,07,6.10
2017,02,17,20,08,6.10
2017,02,17,20,09,6.00
2017,02,17,20,10,6.00
2017,02,17,20,11,5.90
2017,02,17,20,12,5.80
2017,02,17,20,13,5.70
2017,02,17,20,14,5.70
2017,02,17,20,15,5.60
2017,02,17,20,16,5.60
2017,02,17,20,17,5.50
2017,02,17,20,18,5.50
2017,02,17,20,19,5.40
2017,02,17,20,20,5.40
2017,02,17,20,21,5.40
2017,02,17,20,22,5.30
2017,02,17,20,23,5.30
2017,02,17,20,24,5.30
2017,02,17,20,25,5.20
2017,02,17,20,26,5.20
2017,02,17,20,27,5.20
2017,02,17,20,28,5.20
2017,02,17,20,29,5.20
2017,02,17,20,30,5.20
2017,02,17,20,31,5.20
2017,02,17,20,32,5.20
2017,02,17,20,33,5.20
2017,02,17,20,34,5.20
2017,02,17,20,35,5.20
2017,02,17,20,36,5.20
2017,02,17,20,37,5.20